When you browse on this site, cookies collect data to enhance your experience and personalize the content and advertising you see.
Visit our Privacy Policy to learn more. By continuing to use the site, you agree to this use of cookies and data.
  • Em Portugal
  • Lista de países
  • Para 7 dias
  • Temperatura da água
  • Mapas de satélite
  • Mapa do tempo
  • Widgets de tempo
  • user-avatar
    Iniciar Sessão

    Previsão horária em Kurdzhali

    Hoje, 19 Novembro, Segunda-feira

    Tempo Temperatura Precipitação Vento Pressão Humidade
    00:00 +4°C° 2 mm 3 m/s 723 mmHg 94%
    01:00 +4°C° 2 mm 3 m/s 722 mmHg 94%
    02:00 +5°C° 0 mm 2 m/s 722 mmHg 93%
    03:00 +5°C° 0.6 mm 2 m/s 721 mmHg 93%
    04:00 +6°C° 0.6 mm 2 m/s 721 mmHg 92%
    05:00 +6°C° 0.6 mm 2 m/s 721 mmHg 92%
    06:00 +6°C° 0.2 mm 2 m/s 721 mmHg 92%
    07:00 +6°C° 0.2 mm 2 m/s 721 mmHg 91%
    08:00 +7°C° 0 mm 1 m/s 722 mmHg 91%
    09:00 +8°C° 0 mm 1 m/s 722 mmHg 87%
    10:00 +9°C° 0 mm 1 m/s 723 mmHg 83%
    11:00 +11°C° 0 mm 1 m/s 724 mmHg 79%
    12:00 +11°C° 0 mm 1 m/s 724 mmHg 77%
    13:00 +12°C° 0 mm 1 m/s 724 mmHg 74%
    14:00 +13°C° 0 mm 1 m/s 724 mmHg 72%
    15:00 +12°C° 0 mm 1 m/s 725 mmHg 75%
    16:00 +11°C° 0 mm 1 m/s 725 mmHg 79%
    17:00 +10°C° 0 mm 1 m/s 725 mmHg 83%
    18:00 +9°C° 0 mm 1 m/s 725 mmHg 84%
    19:00 +9°C° 0 mm 1 m/s 726 mmHg 85%
    20:00 +8°C° 0 mm 1 m/s 726 mmHg 86%
    21:00 +8°C° 0 mm 1 m/s 727 mmHg 85%
    22:00 +8°C° 0 mm 1 m/s 727 mmHg 85%
    23:00 +7°C° 0 mm 1 m/s 728 mmHg 85%

    Amanhã, 20 Novembro, Terça-feira

    Tempo Temperatura Precipitação Vento Pressão Humidade
    00:00 +7°C° 0 mm 1 m/s 728 mmHg 85%
    01:00 +7°C° 0 mm 1 m/s 728 mmHg 85%
    02:00 +7°C° 0 mm 1 m/s 728 mmHg 85%
    03:00 +7°C° 0 mm 1 m/s 728 mmHg 86%
    04:00 +7°C° 0 mm 1 m/s 728 mmHg 86%
    05:00 +7°C° 0 mm 1 m/s 728 mmHg 87%
    06:00 +7°C° 0 mm 1 m/s 729 mmHg 88%
    07:00 +7°C° 0 mm 1 m/s 729 mmHg 88%
    08:00 +7°C° 0 mm 1 m/s 729 mmHg 89%
    09:00 +8°C° 0 mm 2 m/s 729 mmHg 87%
    10:00 +9°C° 0 mm 2 m/s 729 mmHg 84%
    11:00 +10°C° 0 mm 2 m/s 730 mmHg 82%
    12:00 +10°C° 0.1 mm 2 m/s 729 mmHg 84%
    13:00 +10°C° 0.1 mm 2 m/s 729 mmHg 86%
    14:00 +10°C° 0.1 mm 2 m/s 728 mmHg 88%
    15:00 +10°C° 0.2 mm 2 m/s 728 mmHg 90%
    16:00 +10°C° 0.2 mm 2 m/s 728 mmHg 92%
    17:00 +10°C° 0.2 mm 2 m/s 727 mmHg 94%
    18:00 +10°C° 0.3 mm 2 m/s 727 mmHg 95%
    19:00 +10°C° 0.3 mm 2 m/s 727 mmHg 95%
    20:00 +10°C° 0.3 mm 2 m/s 727 mmHg 96%
    21:00 +10°C° 0.5 mm 2 m/s 727 mmHg 96%
    22:00 +10°C° 0.5 mm 2 m/s 727 mmHg 97%
    23:00 +10°C° 0.5 mm 2 m/s 726 mmHg 97%

    Depois de amanhã, 21 Novembro, Quarta-feira

    Tempo Temperatura Precipitação Vento Pressão Humidade
    00:00 +10°C° 0.5 mm 2 m/s 726 mmHg 97%
    01:00 +12°C° 0.5 mm 2 m/s 726 mmHg 97%
    02:00 +12°C° 0.5 mm 2 m/s 726 mmHg 97%
    03:00 +12°C° 0.4 mm 1 m/s 725 mmHg 97%
    04:00 +12°C° 0.4 mm 1 m/s 725 mmHg 97%
    05:00 +12°C° 0.4 mm 1 m/s 724 mmHg 97%
    06:00 +12°C° 0.7 mm 1 m/s 724 mmHg 97%
    07:00 +12°C° 0.7 mm 1 m/s 724 mmHg 97%
    08:00 +12°C° 0.7 mm 1 m/s 724 mmHg 96%
    09:00 +12°C° 0.7 mm 1 m/s 724 mmHg 95%
    10:00 +13°C° 0.7 mm 2 m/s 724 mmHg 94%
    11:00 +13°C° 0.7 mm 2 m/s 724 mmHg 93%
    12:00 +13°C° 1.5 mm 2 m/s 723 mmHg 93%
    13:00 +13°C° 1.5 mm 2 m/s 723 mmHg 94%
    14:00 +12°C° 1.5 mm 2 m/s 723 mmHg 95%
    15:00 +12°C° 2.5 mm 2 m/s 723 mmHg 94%
    16:00 +11°C° 2.5 mm 3 m/s 723 mmHg 93%
    17:00 +10°C° 2.5 mm 3 m/s 723 mmHg 93%
    18:00 +10°C° 2.5 mm 3 m/s 723 mmHg 93%
    19:00 +8°C° 2.5 mm 4 m/s 724 mmHg 92%
    20:00 +8°C° 2.5 mm 4 m/s 724 mmHg 92%
    21:00 +8°C° 1.8 mm 4 m/s 725 mmHg 91%
    22:00 +7°C° 1.8 mm 4 m/s 725 mmHg 91%
    23:00 +7°C° 1.8 mm 4 m/s 725 mmHg 90%

    22 Novembro, Quinta-feira

    Tempo Temperatura Precipitação Vento Pressão Humidade
    00:00 +7°C° 0.8 mm 4 m/s 726 mmHg 90%
    01:00 +7°C° 0.8 mm 4 m/s 726 mmHg 90%
    02:00 +7°C° 0.8 mm 5 m/s 726 mmHg 90%
    03:00 +6°C° 0.4 mm 4 m/s 727 mmHg 89%
    04:00 +6°C° 0.4 mm 4 m/s 727 mmHg 89%
    05:00 +6°C° 0.4 mm 4 m/s 727 mmHg 89%
    06:00 +6°C° 0.2 mm 4 m/s 727 mmHg 88%
    07:00 +6°C° 0.2 mm 4 m/s 728 mmHg 88%
    08:00 +6°C° 0.2 mm 4 m/s 728 mmHg 88%
    09:00 +5°C° 0.1 mm 4 m/s 729 mmHg 87%
    10:00 +5°C° 0.1 mm 4 m/s 729 mmHg 86%
    11:00 +5°C° 0.1 mm 4 m/s 730 mmHg 85%
    12:00 +6°C° 0.1 mm 4 m/s 730 mmHg 84%
    13:00 +7°C° 0.1 mm 3 m/s 730 mmHg 83%
    14:00 +7°C° 0.1 mm 3 m/s 730 mmHg 83%
    15:00 +7°C° 0.1 mm 3 m/s 730 mmHg 83%
    16:00 +5°C° 0.1 mm 3 m/s 730 mmHg 84%
    17:00 +5°C° 0.1 mm 3 m/s 731 mmHg 85%
    18:00 +5°C° 0.2 mm 3 m/s 731 mmHg 85%
    19:00 +5°C° 0.2 mm 3 m/s 731 mmHg 85%
    20:00 +4°C° 0.2 mm 3 m/s 732 mmHg 86%
    21:00 +4°C° 0.1 mm 3 m/s 732 mmHg 86%
    22:00 +5°C° 0.1 mm 2 m/s 732 mmHg 86%
    23:00 +4°C° 0.1 mm 2 m/s 732 mmHg 86%

    23 Novembro, Sexta-feira

    Tempo Temperatura Precipitação Vento Pressão Humidade
    00:00 +4°C° 0 mm 2 m/s 732 mmHg 86%
    01:00 +4°C° 0 mm 2 m/s 732 mmHg 85%
    02:00 +4°C° 0 mm 2 m/s 733 mmHg 85%
    03:00 +3°C° 0 mm 2 m/s 733 mmHg 85%
    04:00 +3°C° 0 mm 2 m/s 733 mmHg 84%
    05:00 +3°C° 0 mm 2 m/s 733 mmHg 84%
    06:00 +3°C° 0 mm 2 m/s 733 mmHg 83%
    07:00 +3°C° 0 mm 2 m/s 734 mmHg 83%
    08:00 +3°C° 0 mm 2 m/s 734 mmHg 82%
    09:00 +4°C° 0 mm 2 m/s 734 mmHg 77%
    10:00 +4°C° 0 mm 3 m/s 735 mmHg 72%
    11:00 +5°C° 0 mm 3 m/s 735 mmHg 67%
    12:00 +5°C° 0 mm 3 m/s 735 mmHg 65%
    13:00 +7°C° 0 mm 3 m/s 735 mmHg 63%
    14:00 +7°C° 0 mm 3 m/s 735 mmHg 60%
    15:00 +7°C° 0 mm 3 m/s 735 mmHg 63%
    16:00 +6°C° 0 mm 2 m/s 735 mmHg 67%
    17:00 +5°C° 0 mm 2 m/s 735 mmHg 70%
    18:00 +4°C° 0 mm 2 m/s 735 mmHg 72%
    19:00 +4°C° 0 mm 2 m/s 735 mmHg 74%
    20:00 +3°C° 0 mm 2 m/s 736 mmHg 77%
    21:00 +3°C° 0 mm 2 m/s 736 mmHg 78%
    22:00 +2°C° 0 mm 2 m/s 736 mmHg 78%
    23:00 +2°C° 0 mm 2 m/s 736 mmHg 79%

    24 Novembro, Sábado

    Tempo Temperatura Precipitação Vento Pressão Humidade
    00:00 +2°C° 0 mm 2 m/s 736 mmHg 79%
    01:00 +1°C° 0 mm 2 m/s 736 mmHg 79%
    02:00 +1°C° 0 mm 2 m/s 735 mmHg 79%
    03:00 +1°C° 0 mm 2 m/s 735 mmHg 78%
    04:00 +1°C° 0 mm 2 m/s 735 mmHg 77%
    05:00 +1°C° 0 mm 2 m/s 735 mmHg 75%
    06:00 +1°C° 0 mm 2 m/s 735 mmHg 74%
    07:00 +1°C° 0 mm 2 m/s 735 mmHg 73%
    08:00 +1°C° 0 mm 2 m/s 735 mmHg 71%
    09:00 +3°C° 0 mm 2 m/s 735 mmHg 65%
    10:00 +5°C° 0 mm 2 m/s 736 mmHg 59%
    11:00 +6°C° 0 mm 2 m/s 736 mmHg 53%
    12:00 +7°C° 0 mm 2 m/s 735 mmHg 53%
    13:00 +7°C° 0 mm 2 m/s 735 mmHg 52%
    14:00 +8°C° 0 mm 2 m/s 734 mmHg 51%
    15:00 +8°C° 0 mm 1 m/s 734 mmHg 57%
    16:00 +7°C° 0 mm 1 m/s 734 mmHg 63%
    17:00 +5°C° 0 mm 1 m/s 734 mmHg 68%
    18:00 +5°C° 0 mm 1 m/s 734 mmHg 70%
    19:00 +5°C° 0 mm 1 m/s 734 mmHg 71%
    20:00 +4°C° 0 mm 1 m/s 734 mmHg 73%
    21:00 +4°C° 0 mm 1 m/s 734 mmHg 73%
    22:00 +4°C° 0 mm 1 m/s 734 mmHg 73%
    23:00 +4°C° 0 mm 1 m/s 733 mmHg 73%
    Mostrar mais